Zurück zum Katalog

FREGAT DEB

LostUNKNOWN
NORAD 45996·DEBRIS·🇷🇺 Russia

Gestartet Jul 18, 2011 von Baikonur Cosmodrome

Loading…

Nächste Überflüge (nächste 24 Stunden)

TLE

VeraltetSource: Space-Track

Epoche: Jan 19, 2022, 22:37 UTC

1 45996U 11037GX  22019.94249497  .00042019  00000-0  80330-2 0  9999
2 45996  51.3770 298.6176 1825986 118.1466 336.2121 11.44648186 61393

Verfolge FREGAT DEB in Echtzeit mit AllMySat

Download on the App Store